Hourly Weather Alife

Today, 5 December, Saturday

Time Temperature Precipitation Wind Pressure Humidity
00:00 +10°C° 0.2 mm 3 mps 733 mmHg 88%
01:00 +10°C° 0 mm 2 mps 732 mmHg 89%
02:00 +10°C° 0.1 mm 2 mps 732 mmHg 90%
03:00 +10°C° 0.1 mm 2 mps 732 mmHg 90%
04:00 +10°C° 0.1 mm 2 mps 732 mmHg 91%
05:00 +10°C° 0.1 mm 2 mps 732 mmHg 92%
06:00 +10°C° 0.1 mm 2 mps 732 mmHg 92%
07:00 +10°C° 0.1 mm 2 mps 732 mmHg 93%
08:00 +12°C° 0.1 mm 2 mps 732 mmHg 90%
09:00 +12°C° 0.1 mm 3 mps 733 mmHg 87%
10:00 +12°C° 0.1 mm 3 mps 733 mmHg 84%
11:00 +13°C° 0.2 mm 4 mps 733 mmHg 82%
12:00 +14°C° 0.2 mm 4 mps 733 mmHg 80%
13:00 +14°C° 0.2 mm 5 mps 733 mmHg 77%
14:00 +14°C° 0.2 mm 4 mps 732 mmHg 78%
15:00 +14°C° 0.2 mm 4 mps 732 mmHg 79%
16:00 +13°C° 0.2 mm 3 mps 732 mmHg 80%
17:00 +12°C° 0.1 mm 3 mps 732 mmHg 82%
18:00 +13°C° 0.1 mm 2 mps 732 mmHg 85%
19:00 +12°C° 0.1 mm 2 mps 732 mmHg 87%
20:00 +12°C° 0.2 mm 2 mps 732 mmHg 87%
21:00 +12°C° 0.2 mm 2 mps 732 mmHg 87%
22:00 +12°C° 0.2 mm 2 mps 732 mmHg 87%
23:00 +12°C° 0.4 mm 2 mps 732 mmHg 87%

Tomorrow, 6 December, Sunday

Time Temperature Precipitation Wind Pressure Humidity
00:00 +12°C° 0.4 mm 2 mps 732 mmHg 87%
01:00 +12°C° 0.4 mm 2 mps 732 mmHg 86%
02:00 +12°C° 0.3 mm 2 mps 731 mmHg 86%
03:00 +12°C° 0.3 mm 2 mps 730 mmHg 85%
04:00 +12°C° 0.3 mm 2 mps 730 mmHg 84%
05:00 +12°C° 0.9 mm 2 mps 729 mmHg 86%
06:00 +12°C° 0.9 mm 2 mps 728 mmHg 87%
07:00 +11°C° 0.9 mm 3 mps 727 mmHg 89%
08:00 +12°C° 0.7 mm 3 mps 727 mmHg 87%
09:00 +12°C° 0.7 mm 3 mps 726 mmHg 86%
10:00 +12°C° 0.7 mm 4 mps 726 mmHg 84%
11:00 +12°C° 6.7 mm 3 mps 726 mmHg 88%
12:00 +11°C° 6.7 mm 3 mps 726 mmHg 92%
13:00 +10°C° 6.7 mm 2 mps 726 mmHg 95%
14:00 +10°C° 2 mm 3 mps 726 mmHg 93%
15:00 +10°C° 2 mm 3 mps 726 mmHg 91%
16:00 +9°C° 2 mm 3 mps 726 mmHg 90%
17:00 +9°C° 0.6 mm 3 mps 727 mmHg 90%
18:00 +9°C° 0.6 mm 3 mps 727 mmHg 91%
19:00 +9°C° 0.6 mm 3 mps 727 mmHg 91%
20:00 +9°C° 0.4 mm 3 mps 728 mmHg 90%
21:00 +9°C° 0.4 mm 3 mps 729 mmHg 90%
22:00 +9°C° 0.4 mm 2 mps 729 mmHg 89%
23:00 +8°C° 0.1 mm 2 mps 730 mmHg 90%

Day after tomorrow, 7 December, Monday

Time Temperature Precipitation Wind Pressure Humidity
00:00 +8°C° 0.1 mm 2 mps 730 mmHg 91%
01:00 +7°C° 0.1 mm 2 mps 730 mmHg 92%
02:00 +7°C° 0 mm 2 mps 731 mmHg 92%
03:00 +8°C° 0 mm 1 mps 731 mmHg 91%
04:00 +8°C° 0 mm 1 mps 731 mmHg 91%
05:00 +8°C° 0.1 mm 1 mps 731 mmHg 91%
06:00 +8°C° 0.1 mm 1 mps 732 mmHg 92%
07:00 +8°C° 0.1 mm 1 mps 732 mmHg 92%
08:00 +9°C° 0.1 mm 1 mps 732 mmHg 88%
09:00 +10°C° 0.1 mm 1 mps 733 mmHg 83%
10:00 +10°C° 0.1 mm 2 mps 733 mmHg 79%
11:00 +10°C° 0.4 mm 2 mps 733 mmHg 78%
12:00 +11°C° 0.4 mm 3 mps 733 mmHg 76%
13:00 +11°C° 0.4 mm 3 mps 733 mmHg 74%
14:00 +10°C° 0.4 mm 3 mps 733 mmHg 78%
15:00 +10°C° 0.4 mm 2 mps 733 mmHg 81%
16:00 +9°C° 0.4 mm 2 mps 733 mmHg 84%
17:00 +8°C° 0.1 mm 2 mps 733 mmHg 86%
18:00 +9°C° 0.1 mm 1 mps 734 mmHg 88%
19:00 +8°C° 0.1 mm 1 mps 734 mmHg 90%
20:00 +8°C° 0 mm 1 mps 734 mmHg 90%
21:00 +8°C° 0 mm 1 mps 734 mmHg 90%
22:00 +8°C° 0 mm 1 mps 734 mmHg 90%
23:00 +8°C° 0 mm 1 mps 734 mmHg 88%

8 December, Tuesday

Time Temperature Precipitation Wind Pressure Humidity
00:00 +8°C° 0 mm 1 mps 733 mmHg 87%
01:00 +7°C° 0 mm 1 mps 733 mmHg 86%
02:00 +8°C° 0 mm 1 mps 733 mmHg 86%
03:00 +8°C° 0 mm 1 mps 732 mmHg 86%
04:00 +8°C° 0 mm 1 mps 732 mmHg 86%
05:00 +7°C° 0.8 mm 2 mps 731 mmHg 88%
06:00 +7°C° 0.8 mm 2 mps 731 mmHg 91%
07:00 +7°C° 0.8 mm 3 mps 730 mmHg 93%
08:00 +8°C° 4.6 mm 3 mps 730 mmHg 93%
09:00 +7°C° 4.6 mm 4 mps 729 mmHg 94%
10:00 +8°C° 4.6 mm 5 mps 729 mmHg 95%
11:00 +8°C° 6.9 mm 5 mps 728 mmHg 94%
12:00 +8°C° 6.9 mm 4 mps 728 mmHg 94%
13:00 +10°C° 6.9 mm 4 mps 727 mmHg 94%
14:00 +10°C° 1.9 mm 4 mps 727 mmHg 92%
15:00 +10°C° 1.9 mm 4 mps 727 mmHg 90%
16:00 +10°C° 1.9 mm 4 mps 727 mmHg 87%
17:00 +9°C° 0.9 mm 3 mps 727 mmHg 89%
18:00 +9°C° 0.9 mm 3 mps 727 mmHg 90%
19:00 +8°C° 0.9 mm 2 mps 728 mmHg 91%
20:00 +8°C° 0.7 mm 2 mps 728 mmHg 92%
21:00 +8°C° 0.7 mm 2 mps 728 mmHg 92%
22:00 +8°C° 0.7 mm 2 mps 728 mmHg 92%
23:00 +8°C° 0.1 mm 2 mps 728 mmHg 92%

9 December, Wednesday

Time Temperature Precipitation Wind Pressure Humidity
00:00 +8°C° 0.1 mm 2 mps 728 mmHg 91%
01:00 +8°C° 0.1 mm 2 mps 729 mmHg 91%
02:00 +7°C° 0.4 mm 2 mps 729 mmHg 92%
03:00 +8°C° 0.4 mm 1 mps 729 mmHg 93%
04:00 +8°C° 0.4 mm 1 mps 729 mmHg 94%
05:00 +8°C° 0.1 mm 1 mps 729 mmHg 93%
06:00 +8°C° 0.1 mm 1 mps 729 mmHg 93%
07:00 +8°C° 0.1 mm 1 mps 729 mmHg 92%
08:00 +8°C° 0 mm 1 mps 730 mmHg 89%
09:00 +9°C° 0 mm 1 mps 730 mmHg 86%
10:00 +10°C° 0 mm 1 mps 731 mmHg 83%
11:00 +10°C° 0.2 mm 1 mps 731 mmHg 82%
12:00 +10°C° 0.2 mm 1 mps 731 mmHg 81%
13:00 +9°C° 0.2 mm 2 mps 731 mmHg 81%
14:00 +9°C° 0.1 mm 2 mps 731 mmHg 82%
15:00 +9°C° 0.1 mm 2 mps 731 mmHg 82%
16:00 +10°C° 0.1 mm 1 mps 731 mmHg 83%
17:00 +9°C° 0.1 mm 1 mps 731 mmHg 85%
18:00 +8°C° 0.1 mm 1 mps 732 mmHg 87%
19:00 +7°C° 0.1 mm 1 mps 732 mmHg 89%
20:00 +7°C° 0 mm 1 mps 732 mmHg 89%
21:00 +7°C° 0 mm 1 mps 732 mmHg 88%
22:00 +7°C° 0 mm 1 mps 732 mmHg 88%
23:00 +7°C° 0 mm 1 mps 732 mmHg 86%

10 December, Thursday

Time Temperature Precipitation Wind Pressure Humidity
00:00 +7°C° 0 mm 1 mps 732 mmHg 85%
01:00 +6°C° 0 mm 0 mps 732 mmHg 83%
02:00 +7°C° 0 mm 1 mps 731 mmHg 83%
03:00 +6°C° 0 mm 1 mps 731 mmHg 83%
04:00 +6°C° 0 mm 1 mps 731 mmHg 83%
05:00 +6°C° 0 mm 1 mps 731 mmHg 82%
06:00 +6°C° 0 mm 1 mps 731 mmHg 82%
07:00 +6°C° 0 mm 1 mps 731 mmHg 82%
08:00 +7°C° 0 mm 1 mps 731 mmHg 77%
09:00 +8°C° 0 mm 1 mps 731 mmHg 73%
10:00 +9°C° 0 mm 0 mps 732 mmHg 69%
11:00 +10°C° 0 mm 1 mps 732 mmHg 68%
12:00 +11°C° 0 mm 1 mps 731 mmHg 67%
13:00 +12°C° 0 mm 1 mps 731 mmHg 66%
14:00 +11°C° 0.1 mm 1 mps 731 mmHg 70%
15:00 +10°C° 0.1 mm 1 mps 731 mmHg 75%
16:00 +10°C° 0.1 mm 1 mps 732 mmHg 79%
17:00 +9°C° 0 mm 1 mps 732 mmHg 82%
18:00 +8°C° 0 mm 1 mps 732 mmHg 85%
19:00 +7°C° 0 mm 1 mps 732 mmHg 88%
20:00 +7°C° 0 mm 1 mps 732 mmHg 88%
21:00 +7°C° 0 mm 1 mps 732 mmHg 88%
22:00 +7°C° 0 mm 1 mps 732 mmHg 88%
23:00 +8°C° 0.3 mm 1 mps 732 mmHg 89%
Show more